RADUGA 11 [-]

Last updated on Jan. 23, 2021, 7:21 a.m. UTC

1 13669U 82113A   21022.86198536 -.00000023  00000-0  00000-0 0  9999
2 13669  13.0183 326.9361 0036523 242.5084 289.5691  0.97707325102279
UTC
Height (km)
Latitude
Longitude
Inclination
Orbital Period
UTC large
Height (km)
Speed (km/s)
/
Latitude / Longitude
Inclination (degrees)
Orbital Period (minutes)
Azimuth
Elevation
Range (km)
Doppler Factor
iOS Compass Heading
iOS Angle

Next 30 passes for location: Hong Kong

Rise time Rise Azimuth (degrees) Set time Set Azimuth (degrees) Duration Max altitude (degrees)

No matching passes for this satellites